Location: Ch�tillon
(48.8024°N, 2.2935°E)
Time: 17:41:15
(UTC+00:00)

RS-15 - Pass Details

Date: 29 June 2022
Orbit: 1881 x 2163 km, 64.8° (Epoch: 11 August)

Event Time Altitude Azimuth Distance (km) Brightness Sun altitude
Rises 22:05:15 0° 313° (NW) 5,688 11.9 -14.0°
Reaches altitude 10° 22:08:50 10° 318° (NW) 4,691 11.3 -14.2°
Maximum altitude 22:21:08 61° 38° (NE) 2,385 8.6 -15.1°
Drops below altitude 10° 22:33:04 10° 118° (ESE) 4,580 9.5 -15.7°
Enters shadow 22:34:55 - 120° (ESE) 5,097 9.8 -15.8°
